Regional Weather Roundup
Issued by NWS Midland/Odessa, TX

Skip options and go directly to product.
Home | Oldest Version | Next Version | Current Version | All | Text Only | Save Text | Print | Product List | Glossary On

Skip product version selection by date and time.   
702
ASUS44 KMAF 022110
RWRMAF
MIDLAND AREA WEATHER ROUNDUP
NATIONAL WEATHER SERVICE MIDLAND TX
400 PM CDT SUN AUG 02 2015

...IN SOUTHWEST TEXAS AND SOUTHEAST NEW MEXICO...

CITY           SKY/WX    TMP DP  RH WIND       PRES   REMARKS
ALPINE         PTSUNNY   85  60  42 W6        30.12F
ANDREWS        PTSUNNY   99  55  23 SW12      29.95F
ARTESIA        PTSUNNY   91  59  33 S25       29.98R
BIG SPRING     MOSUNNY   95  57  27 SE7G16    29.95F
CARLSBAD       PTSUNNY   91  57  31 E13G25    29.94F
DRYDEN           N/A    100  59  25 S13G20    29.91F HX 100
FORT STOCKTON  MOSUNNY   97  55  24 E12G23    29.94F
GUAD PASS      PTSUNNY   91  56  30 SW13G18   30.13F
HOBBS          MOSUNNY   95  59  30 S14       29.98F
MARFA          PTSUNNY   90  57  33 E15       30.10F
MIDLAND AIRPK  SUNNY    100  53  20 SE10G17   29.94F
MIDLAND INTL   MOSUNNY   98  56  24 SE14      29.94F
ODESSA         SUNNY    100  52  19 S12G20    29.95F
PECOS          SUNNY    102  54  20 SE14      29.89F HX 100
PRESIDIO       FAIR      99  53  21 E5        29.91F
SEMINOLE       MOSUNNY   95  53  24 SW12      29.98F
SNYDER         MOSUNNY   95  62  33 E7        29.95F
WINK           MOSUNNY  102  53  19 S13G18    29.90F HX 100
$$
...OTHER STATIONS IN TEXAS...

CITY           SKY/WX    TMP DP  RH WIND       PRES   REMARKS
ABILENE        MOSUNNY   97  61  30 SE15      29.94F
AMARILLO       MOSUNNY   88  65  46 S9        30.00F
AUSTIN         MOSUNNY   96  58  27 NE10      29.88F
BROWNSVILLE    PTSUNNY   89  75  63 E12G21    29.88F
CORPUS CHRISTI MOSUNNY   94  73  50 SE13      29.87S HX 103
DALLAS FTW     MOSUNNY   97  53  22 CALM      29.90F
DEL RIO        SUNNY    100  61  27 SE14G20   29.86F HX 101
EL PASO        MOSUNNY   92  54  27 E5        29.98F
HOUSTON INT    MOSUNNY   98  60  28 E6        29.86F
LUBBOCK        MOSUNNY   95  64  35 SE12G18   29.98F
SAN ANGELO     MOSUNNY  100  60  26 SE8       29.92F HX 100
SAN ANTONIO    MOSUNNY   96  60  30 E10       29.90F
WACO           SUNNY     98  55  23 SE5       29.89F
WICHITA FALLS  NOT AVBL
$$
...OTHER LOCATIONS IN NEW MEXICO...

CITY           SKY/WX    TMP DP  RH WIND       PRES   REMARKS
ALAMAGORDO     MOSUNNY   93  52  24 SE6G16    30.01F
ALBUQUERQUE    PTSUNNY   82  51  34 SW7       30.12F
CANNON AFB     SUNNY     89  58  34 NW9       30.02F
CLOVIS         MOSUNNY   91  57  31 NW6       30.03F
HOLLOMAN AFB   SUNNY     95  52  23 NW8       29.98F
ROSWELL        CLOUDY    87  57  35 S29G37    29.98R THUNDER
RUIDOSO          N/A    N/A N/A N/A MISG        N/A
SANTA FE       CLOUDY    79  52  38 N3        30.17F
TRUTH OR CONSE LGT RAIN  79  58  48 W18G24    30.08S
TUCUMCARI      SUNNY     91  60  35 S9        29.98F
$$

USA.gov is the U.S. government's official web portal to all federal, state and local government web resources and services.